Location: Novokuznetsk
(53.7500°N, 87.1000°E)
Time: 21:37:57
(UTC+06:00)

ISS - Pass Details

Date: 14 January 2018
Orbit: 402 x 407 km, 51.6° (Epoch: 23 January)

Event Time Altitude Azimuth Distance (km) Brightness Sun altitude
Exits shadow 05:05:46 10° 138° (SE) 1,463 -0.6 -28.0°
Drops below altitude 10° 05:05:46 10° 138° (SE) 1,464 -0.6 -28.0°
Sets 05:07:58 0° 128° (SE) 2,323 0.7 -27.7°
